Wetbulb
20.24 19.94 20.31 20.41 20.00 19.88 20.35 21.69 23.17 23.67 23.79 24.01 24.47 24.71 24.81 24.59 24.74 25.56 25.24 24.53 25.70 26.62
18.31 18.63 18.80 19.57 19.85 20.24 20.10 22.36 22.97 22.37 22.26 22.99 23.34 23.59 23.81 23.35 23.32 24.04 24.43 24.64 25.16 25.54
17.14 18.28 18.57 18.91 18.77 19.51 19.79 20.20 20.23 20.46 21.19 21.47 22.13 22.75 22.74 22.40 23.25 22.95 23.50 24.58 24.38 25.10
15.87 16.88 17.61 17.81 18.18 18.71 19.62 19.20 19.36 19.78 20.19 20.49 20.89 21.66 21.29 21.47 22.03 22.02 22.57 23.35 23.09 23.70
14.67 15.34 15.23 15.92 17.11 18.27 17.63 18.94 18.64 19.07 19.15 19.36 19.97 20.58 20.40 20.42 21.02 20.81 20.70 21.70 22.17 22.43
12.60 12.97 13.26 14.38 15.65 16.67 16.94 17.38 17.85 18.43 17.61 18.13 19.39 19.66 20.37 20.51 20.60 20.89 21.28 21.74 21.79 22.31
11.25 11.99 12.25 13.30 14.65 15.58 16.30 16.46 16.82 17.30 17.37 17.98 18.46 19.54 19.95 20.68 20.66 20.97 21.94 23.22 23.66 23.74
11.15 11.62 12.23 12.85 13.95 14.95 15.52 15.67 16.09 16.47 16.82 17.13 17.97 19.61 20.00 21.89 22.80 23.36 23.59 24.75 25.19 26.04
9.52 10.44 10.76 11.68 12.47 13.32 13.73 14.02 14.69 14.92 15.45 15.72 18.08 22.35 24.95 25.17 23.31 24.32 24.85 25.44 25.17 25.71
6.69 7.65 9.27 10.62 11.31 11.37 11.49 12.46 12.81 13.55 14.82 15.29 16.55 22.43 24.86 26.48 24.39 24.40 23.74 24.25 24.56 25.02
3.47 4.78 8.27 9.09 9.49 9.91 10.64 10.76 11.59 12.86 14.41 15.16 17.57 22.74 24.39 25.52 23.56 23.92 22.71 23.07 23.53 23.66
5.09 3.47 4.01 4.86 5.58 8.00 8.90 9.73 10.98 13.68 15.07 15.54 16.23 21.68 23.45 23.71 21.69 22.27 22.86 23.94 24.59 25.31
5.81 2.78 0.26 2.45 4.11 5.46 7.69 10.43 13.17 14.10 15.04 17.60 15.96 20.06 22.32 22.81 22.02 20.97 22.61 24.52 24.58 27.81
5.20 3.75 2.86 2.75 3.51 3.87 5.30 8.81 8.51 10.87 12.75 14.21 15.74 16.18 22.01 23.83 22.35 22.89 22.96 23.78 24.45 24.78
MSLP
1035.87 1035.60 1035.28 1034.96 1034.74 1034.44 1033.99 1033.41 1032.90 1032.50 1032.25 1031.96 1031.70 1031.52 1031.35 1031.03 1030.66 1030.15 1029.88 1029.52 1029.05 1028.52
1035.94 1035.55 1035.18 1034.80 1034.55 1034.26 1033.89 1033.25 1032.60 1032.56 1032.11 1031.75 1031.45 1031.26 1030.97 1030.68 1030.37 1029.92 1029.48 1029.06 1028.66 1028.24
1035.92 1035.55 1035.30 1034.90 1034.43 1034.00 1033.56 1033.16 1032.91 1032.39 1031.91 1031.53 1031.25 1030.96 1030.64 1030.28 1029.86 1029.43 1028.98 1028.53 1028.12 1027.64
1035.95 1035.43 1035.05 1034.54 1034.12 1033.72 1033.17 1032.97 1032.52 1032.17 1031.73 1031.29 1030.95 1030.66 1030.34 1029.93 1029.37 1028.76 1028.20 1027.87 1027.58 1026.97
1035.71 1035.22 1034.85 1034.44 1033.92 1033.56 1033.14 1032.74 1032.32 1031.80 1031.39 1030.90 1030.47 1030.07 1029.75 1029.22 1028.70 1028.21 1027.61 1027.14 1026.82 1026.18
1035.53 1035.11 1034.78 1034.35 1033.92 1033.39 1032.88 1032.40 1031.93 1031.37 1030.90 1030.39 1029.91 1029.47 1029.00 1028.44 1027.86 1027.42 1026.80 1026.28 1025.86 1025.29
1035.39 1034.93 1034.47 1034.09 1033.50 1032.84 1032.29 1031.82 1031.39 1030.87 1030.41 1029.97 1029.39 1028.79 1028.15 1027.61 1026.98 1026.42 1025.82 1025.29 1024.75 1024.17
1035.05 1034.61 1034.16 1033.62 1032.93 1032.31 1031.94 1031.31 1030.91 1030.16 1029.61 1029.19 1028.67 1027.84 1027.14 1026.51 1025.77 1025.21 1024.55 1024.00 1023.43 1022.75
1034.80 1034.38 1033.81 1033.13 1032.57 1032.01 1031.35 1030.81 1030.28 1029.50 1028.93 1028.31 1027.77 1026.89 1026.12 1025.30 1024.57 1023.95 1023.37 1022.58 1022.16 1021.58
1034.33 1033.87 1033.34 1032.74 1032.17 1031.46 1030.83 1030.30 1029.62 1028.94 1028.48 1027.69 1027.03 1026.20 1025.20 1024.21 1023.39 1022.86 1022.32 1021.72 1021.05 1020.32
1033.66 1033.27 1032.73 1032.25 1031.62 1031.11 1030.55 1029.94 1029.17 1028.43 1027.85 1027.04 1026.06 1025.21 1024.26 1023.39 1022.48 1021.84 1021.27 1020.66 1019.98 1019.26
1032.75 1032.53 1032.16 1031.76 1031.25 1030.77 1030.16 1029.45 1028.67 1027.83 1026.88 1026.13 1025.19 1024.47 1023.39 1022.47 1021.72 1020.78 1019.96 1019.33 1018.65 1017.94
1031.89 1031.79 1031.63 1031.19 1030.70 1030.16 1029.69 1028.81 1027.99 1026.99 1026.28 1025.48 1024.41 1023.64 1022.68 1021.72 1020.68 1019.63 1018.76 1017.83 1017.10 1016.43
1031.15 1030.96 1030.63 1030.21 1029.86 1029.43 1028.92 1028.24 1027.50 1026.57 1025.54 1024.73 1023.84 1022.70 1021.78 1020.76 1019.55 1018.61 1017.59 1016.64 1015.78 1015.12
Wind_Speed
5 3 3 3 4 5 5 6 9 7 8 8 9 8 7 6 7 8 7 9 9 8
5 6 5 6 5 5 5 7 9 9 9 9 9 9 9 7 8 8 8 9 9 9
7 6 6 6 7 7 6 7 8 9 9 10 10 10 10 8 9 10 8 9 10 10
7 7 7 7 7 8 9 9 9 10 10 10 10 9 10 11 12 12 12 11 12 14
8 7 8 8 9 9 9 9 10 10 10 11 11 10 10 12 12 13 14 13 13 14
8 8 8 9 9 10 10 10 10 11 11 12 12 12 12 12 13 14 14 14 15 15
8 9 8 9 10 10 10 11 11 11 11 12 12 14 14 14 14 14 14 15 16 16
8 9 10 10 10 10 10 11 11 12 12 12 12 11 11 13 14 15 16 16 16 17
8 9 10 10 10 11 11 11 12 12 13 13 12 21 24 22 15 16 16 14 14 15
8 9 9 10 10 11 12 12 12 12 13 14 14 24 26 27 15 14 15 16 15 15
7 8 9 9 11 11 11 12 12 13 13 14 13 25 27 28 17 13 15 16 17 17
8 8 8 9 10 10 11 11 12 14 14 14 15 25 27 24 15 16 16 15 17 16
8 7 8 10 10 9 10 13 13 15 14 19 17 24 27 23 12 15 13 15 16 25
8 9 9 10 9 9 10 12 12 14 14 15 16 17 26 26 15 12 12 12 11 11
Wind_Direction
344 326 306 305 308 304 301 306 309 310 325 319 319 317 311 305 299 298 299 290 288 288
331 325 314 312 300 289 291 302 313 314 310 310 311 309 305 299 295 289 289 285 284 282
318 315 308 300 297 295 295 299 301 301 303 305 304 303 302 297 292 290 286 282 278 279
305 310 307 305 303 301 306 304 301 297 294 293 293 291 291 288 288 284 286 284 280 276
306 310 308 305 305 303 298 297 295 294 291 290 288 287 282 283 285 283 283 282 278 275
306 303 295 294 293 293 291 290 290 294 292 290 288 287 283 280 280 278 276 278 276 275
294 297 295 291 290 291 295 295 290 288 288 284 285 285 285 281 277 273 272 272 270 271
294 296 294 292 293 296 293 293 290 291 290 288 285 282 280 276 276 277 277 274 270 268
286 288 291 294 294 293 293 294 293 293 293 291 286 289 292 290 284 281 277 281 285 278
273 279 280 287 292 296 297 296 294 293 288 285 283 289 292 291 288 287 283 281 281 279
262 265 277 285 292 293 293 293 292 289 285 282 283 292 296 296 288 288 284 278 276 274
260 265 276 282 284 285 289 289 288 285 285 286 287 293 295 301 293 282 280 278 275 272
259 257 260 266 273 275 276 282 287 288 286 283 290 293 298 296 285 282 279 281 278 278
257 256 257 265 268 269 271 277 275 277 278 278 277 286 295 295 286 285 285 283 288 283